Regional Weather Roundup
Issued by NWS

Home | Current Version | Previous Version | Graphics & Text | Print | Product List | Glossary On
Versions: 1 2 3 4 5 6 7 8 9 10 11 12 13 14 15 16 17 18 19 20 21 22 23 24 25 26 27 28 29 30 31 32 33 34 35 36 37 38 39 40 41 42 43 44 45 46 47 48 49 50
000
ASUS43 KFSD 141410
RWRSD

WEATHER ROUNDUP FOR SOUTH DAKOTA
NATIONAL WEATHER SERVICE SIOUX FALLS SD
800 AM CST SUN FEB 14 2016

NOTE: "FAIR" INDICATES FEW OR NO CLOUDS BELOW 12,000 FEET WITH NO
SIGNIFICANT WEATHER AND/OR OBSTRUCTIONS TO VISIBILITY.


SDZ001>005-009-010-012>017-141500-
NORTHWEST AND NORTH CENTRAL SOUTH DAKOTA

CITY           SKY/WX    TMP DP  RH WIND       PRES   REMARKS
BUFFALO          N/A     31  24  75 W12       29.71S WCI  22
FAITH            N/A     27  21  78 W13       29.76F WCI  16
MOBRIDGE       CLOUDY    24  22  91 SE3       29.75S
$$

SDZ012>016-024>037-041>051-057-063-072>074-141500-
SOUTHWEST AND SOUTH CENTRAL SOUTH DAKOTA

CITY           SKY/WX    TMP DP  RH WIND       PRES   REMARKS
RAPID CTY ARPT CLOUDY    32  24  72 CALM      29.82F
PIERRE         CLOUDY    35  31  85 NW12      29.79F WCI  27
CUSTER         CLOUDY    30  17  58 NW9       29.80S WCI  22
ELLSWORTH AFB  CLOUDY    29  24  84 W7        29.80F WCI  22
PHILIP         CLEAR     27  24  89 NW5       29.82S WCI  22
PINE RIDGE     CLEAR     28  22  78 CALM      29.85F
SPEARFISH      FAIR      34  25  69 W12       29.82R WCI  25
WINNER         FAIR      35  29  78 W12       29.82S WCI  27
$$

SDZ004>011-016>023-039-040-141500-
NORTHEAST SOUTH DAKOTA

CITY           SKY/WX    TMP DP  RH WIND       PRES   REMARKS
ABERDEEN       CLOUDY    16  11  80 S13       29.83S HAZE    WCI   2
WATERTOWN      CLOUDY    12   7  80 S13       29.82F WCI  -3
BROOKINGS      LGT SNOW  12   9  87 S15       29.84F FOG     WCI  -4
SISSETON         N/A     13  10  88 S16       29.87F WCI  -3
$$

SDZ017-020-022-023-036>040-048>070-141500-
SOUTHEAST SOUTH DAKOTA

CITY           SKY/WX    TMP DP  RH WIND       PRES   REMARKS
SIOUX FALLS    CLOUDY    14  10  84 SE10      29.86F WCI   1
HURON          CLOUDY    15  12  88 S9        29.84F WCI   3
CHAMBERLAIN    CLOUDY    27  26  97 NW7       29.81S WCI  20
MITCHELL       CLOUDY    17  13  84 S9        29.85F WCI   6
YANKTON        CLOUDY    18  12  79 E6        29.85R WCI   9
$$

ABBREVIATIONS USED IN REMARKS
   TC - TEMPERATURE IN CELSIUS
  WCI - WIND CHILL INDEX
   HX - HEAT INDEX
  VSB - VISIBILITY




USA.gov is the U.S. government's official web portal to all federal, state and local government web resources and services.